Lapse_Rate
6.6 6.7 6.4 6.2 6.4 6.4 6.2 6.4 6.8 6.9 6.9 7.0 7.0 7.2 7.1 7.2 7.2 7.2 7.2 7.3 7.5 7.4 7.5 7.0 6.0 5.8 6.3 6.3 6.1 6.5 6.6 6.8 6.6 6.6 6.6 6.3 6.3 6.0 5.8 5.6 5.5 5.5 5.6 5.6 5.6 5.7 5.7 6.8 6.9 6.9 7.2 7.2 7.6 7.4
6.7 6.6 6.6 6.3 6.1 6.3 6.5 6.2 6.5 6.5 6.7 7.1 7.2 7.4 7.4 7.4 7.3 7.2 7.3 7.3 7.3 7.0 7.3 7.0 6.4 6.0 5.6 6.3 6.1 6.1 6.4 6.3 6.4 5.7 6.0 6.4 6.9 6.6 6.7 5.8 5.7 6.0 5.9 6.4 6.6 6.5 7.2 6.6 7.0 7.4 7.3 7.1 7.1 7.4
6.9 6.9 6.7 6.5 6.1 6.1 6.4 6.4 6.3 6.5 7.0 7.2 7.4 7.4 7.5 7.5 7.5 7.4 7.4 7.4 7.2 7.0 7.0 6.9 6.6 6.4 5.6 6.1 6.0 6.3 6.0 6.0 6.1 6.1 6.2 6.1 5.6 5.7 6.3 6.3 6.7 6.4 6.6 6.5 6.6 6.5 6.7 6.8 7.0 6.9 6.9 7.2 7.5 7.4
7.0 7.1 7.0 6.8 6.5 6.2 6.6 6.4 6.0 6.5 6.9 7.1 7.4 7.6 7.5 7.6 7.5 7.5 7.5 7.5 7.3 7.1 7.1 7.2 6.9 6.4 6.4 6.6 6.8 6.4 6.0 6.0 6.0 5.8 6.3 6.0 6.1 6.2 6.5 6.5 6.4 6.4 6.3 6.3 6.5 6.9 6.8 6.9 6.8 7.3 7.5 7.5 7.4 7.4
7.4 7.3 7.3 7.0 7.0 6.6 6.5 6.7 6.1 6.4 6.8 6.9 7.3 7.3 7.4 7.5 7.5 7.4 7.4 7.4 7.4 7.2 7.0 7.0 6.8 6.6 6.6 6.8 6.9 6.8 5.9 6.1 6.4 6.5 5.8 6.0 6.2 6.1 6.4 6.6 6.3 6.4 6.9 6.7 6.7 7.0 6.9 7.1 6.6 7.0 7.2 7.2 7.0 6.8
7.4 7.5 7.5 7.3 7.0 7.1 6.5 6.6 6.6 6.3 6.9 7.2 7.3 7.4 7.4 7.4 7.4 7.4 7.2 7.2 7.4 7.3 6.6 6.6 6.7 6.8 6.5 7.0 7.0 6.7 6.4 6.0 6.2 6.5 6.4 6.2 6.4 6.1 6.1 6.1 6.2 6.2 6.5 6.8 6.7 6.8 6.5 6.3 6.2 6.3 6.7 6.5 6.3 6.3
7.4 7.5 7.6 7.6 7.3 7.0 7.0 6.8 6.9 6.6 6.6 7.0 7.3 7.3 7.5 7.5 7.5 7.5 7.4 7.4 7.2 7.1 6.4 6.1 6.0 6.3 6.5 6.5 6.8 6.8 6.8 6.5 6.3 6.5 6.9 7.0 6.8 6.5 5.9 6.3 6.4 6.6 6.6 6.4 6.6 6.7 6.7 6.4 6.4 6.6 6.3 5.6 5.7 5.8
7.6 7.6 7.6 7.6 7.6 7.2 6.9 6.9 6.6 6.8 6.6 6.5 6.8 7.2 7.4 7.5 7.5 7.4 7.4 7.4 7.4 7.2 6.5 6.5 6.3 6.3 6.3 6.4 6.7 6.7 6.8 6.2 6.4 6.3 6.1 6.0 6.5 6.5 6.2 6.1 6.1 6.5 6.8 6.6 6.5 6.5 6.3 6.3 6.2 5.9 5.7 5.5 5.7 5.9
7.9 7.8 7.8 7.8 7.7 7.6 7.2 7.0 6.9 6.5 6.5 6.6 6.2 6.6 6.8 7.1 7.2 7.2 7.2 7.1 7.2 7.0 6.6 6.6 6.4 5.7 6.1 6.2 6.3 6.1 6.4 6.4 6.1 5.8 5.8 6.1 5.7 5.9 6.4 6.1 6.0 5.9 6.1 6.3 6.0 5.9 5.9 6.0 5.8 5.9 6.1 6.0 5.9 5.9
8.1 8.0 8.0 8.0 8.0 7.8 7.7 7.3 7.2 7.1 6.6 6.2 6.7 6.5 6.3 6.3 6.4 6.2 6.2 6.9 7.0 6.8 6.4 6.5 6.0 5.9 6.1 5.9 5.8 5.6 5.6 5.9 5.7 5.6 5.6 5.7 5.3 5.8 5.7 5.6 5.3 5.5 5.6 5.6 5.7 5.9 5.7 5.9 5.8 5.8 5.9 5.9 6.0 6.0
8.2 8.2 8.2 8.2 8.1 8.0 7.9 7.7 7.5 7.4 7.2 6.7 6.2 6.7 6.7 6.6 6.2 5.9 5.9 6.2 6.2 6.2 6.1 5.9 5.5 5.6 5.6 5.6 5.6 5.6 5.4 5.4 5.4 5.0 5.4 5.1 4.9 5.2 5.2 5.0 5.1 5.7 5.9 5.9 5.6 5.6 6.0 6.1 6.0 6.0 6.0 6.1 6.2 6.2
8.3 8.3 8.3 8.2 8.1 8.1 8.1 8.0 7.9 7.7 7.6 7.6 7.3 6.8 6.5 6.8 6.5 6.3 5.9 5.9 6.1 6.0 5.8 5.8 5.7 5.8 5.6 5.6 5.7 5.4 5.2 5.6 5.7 5.2 5.2 5.4 5.5 5.5 5.6 6.0 6.3 6.2 6.2 6.1 6.1 5.9 5.9 6.0 6.2 6.1 6.1 6.1 6.0 6.3
8.0 8.1 8.2 8.2 8.2 8.2 8.3 8.2 8.2 8.1 7.9 7.8 7.8 7.7 7.3 6.7 6.7 6.6 6.6 6.5 6.0 5.8 5.9 5.8 5.7 5.9 5.8 5.4 5.2 5.3 5.4 5.4 5.3 5.2 5.5 5.9 5.6 6.0 6.3 6.4 6.4 6.4 6.2 6.1 6.1 6.1 6.1 6.2 6.2 6.2 6.3 6.7 6.6 6.6
7.9 8.1 8.0 8.0 8.2 8.2 8.3 8.3 8.4 8.3 8.3 8.1 7.7 7.7 7.4 7.2 7.0 7.0 6.8 6.6 6.3 6.1 6.1 6.2 6.1 5.9 5.7 5.9 6.0 5.8 5.6 5.6 5.7 5.7 6.0 5.7 6.0 6.4 6.5 6.6 6.5 6.3 6.3 6.3 6.2 6.2 6.2 6.4 6.5 6.6 6.5 6.5 6.6 6.7
7.6 7.9 8.0 8.0 8.1 8.1 8.2 8.2 8.3 8.4 8.4 8.3 8.1 7.7 7.4 7.2 7.3 7.5 7.4 7.2 7.2 7.0 6.7 6.4 6.5 6.5 6.4 6.3 6.2 6.2 6.0 6.1 6.1 6.6 6.4 6.3 6.6 6.5 6.5 6.4 6.3 6.3 6.3 6.4 6.4 6.5 6.6 6.6 6.5 6.5 6.6 6.7 6.8 6.9
6.8 7.2 6.9 6.0 7.0 8.1 8.3 8.3 8.3 8.4 8.4 8.3 8.2 7.9 7.9 7.7 7.3 7.3 7.4 7.5 7.5 7.4 7.4 7.3 7.2 7.0 6.8 6.7 6.4 6.3 6.4 6.6 6.6 6.7 6.6 6.5 6.6 6.6 6.4 6.3 6.2 6.3 6.5 6.6 6.7 6.7 6.8 6.9 6.9 6.9 7.0 7.0 7.1 7.2
5.9 6.6 6.9 7.0 7.9 8.2 8.3 8.2 8.3 8.4 8.4 8.2 8.1 8.1 8.0 8.0 7.9 7.8 7.7 7.7 7.6 7.5 7.7 7.8 7.6 7.5 7.4 7.4 7.4 7.3 7.2 7.3 7.4 7.3 7.1 6.8 6.8 6.9 6.8 6.7 6.7 6.8 6.9 7.0 7.1 7.2 7.3 7.2 7.3 7.3 7.3 7.3 7.4 7.3
5.5 6.0 6.9 7.3 7.9 8.3 8.3 8.2 8.2 7.8 7.9 8.0 8.1 8.2 8.1 8.1 8.0 7.9 7.8 7.7 7.7 7.7 7.8 7.9 8.0 7.9 7.8 7.7 7.9 7.8 7.7 7.6 7.5 7.5 7.4 7.2 7.2 7.0 7.0 7.0 7.0 7.0 7.2 7.4 7.5 7.6 7.7 7.7 7.8 7.8 7.7 7.7 7.6 7.4
5.4 5.8 6.3 7.1 7.6 8.0 8.1 8.2 8.2 7.8 8.2 8.3 8.3 8.3 8.3 8.2 8.1 8.0 8.0 8.0 7.9 7.8 7.8 7.8 7.9 8.0 8.1 7.9 7.8 7.9 7.9 7.9 7.7 7.6 7.4 7.2 7.1 6.9 7.0 7.1 7.2 7.4 7.5 7.7 7.7 7.8 7.8 7.8 7.8 7.8 7.8 7.7 7.7 7.6
5.2 5.5 5.8 6.3 7.1 7.6 7.7 8.0 8.1 8.2 7.9 8.0 8.3 8.2 8.0 8.2 8.2 8.2 8.2 8.1 8.1 7.9 7.8 7.8 8.0 8.0 7.9 7.7 7.7 7.9 8.0 7.9 7.7 7.6 7.5 7.4 7.1 7.1 7.3 7.4 7.5 7.7 7.8 7.8 7.8 7.8 7.8 7.8 7.8 7.9 7.8 7.8 7.7 7.7
4.9 5.3 5.6 5.7 6.1 6.8 7.3 7.5 7.5 7.6 7.8 8.0 8.0 8.2 8.0 8.3 8.3 8.3 8.2 8.1 8.0 8.1 7.9 7.9 7.9 8.0 7.9 7.8 7.7 7.7 7.8 7.8 7.8 7.7 7.7 7.6 7.6 7.5 7.6 7.7 7.8 7.8 7.8 7.8 7.8 7.8 7.8 7.8 7.8 7.8 7.7 7.6 7.6 7.6
5.0 4.9 5.2 5.4 5.7 5.8 6.5 7.0 7.3 7.6 7.7 7.6 8.0 7.9 7.8 8.0 8.1 8.1 8.1 8.0 8.0 8.1 8.1 8.0 8.0 7.9 7.9 7.7 7.7 7.8 7.8 7.8 7.7 7.8 7.7 7.5 7.6 7.6 7.7 7.6 7.6 7.8 7.8 7.7 7.7 7.7 7.7 7.7 7.6 7.5 7.5 7.5 7.5 7.5
5.1 4.9 4.8 5.0 5.4 5.5 5.7 6.1 6.5 6.8 7.4 7.5 7.6 7.6 7.7 8.0 7.9 7.9 7.9 8.0 8.2 8.2 8.0 8.1 8.0 8.0 7.9 7.8 7.7 7.8 7.8 7.7 7.7 7.6 7.6 7.5 7.6 7.6 7.5 7.5 7.7 7.8 7.9 7.8 7.8 7.7 7.7 7.7 7.6 7.6 7.5 7.5 7.5 7.4
5.3 5.2 4.9 4.9 5.2 5.3 5.5 5.7 5.8 6.1 6.8 7.4 7.6 7.6 7.9 8.0 8.1 8.1 7.9 8.0 8.1 8.1 8.2 8.2 8.2 8.1 7.9 7.8 7.8 7.9 7.8 7.7 7.7 7.6 7.4 7.4 7.4 7.6 7.6 7.8 7.7 7.7 7.7 7.7 7.6 7.6 7.6 7.6 7.7 7.7 7.7 7.6 7.5 7.5
5.4 5.2 5.0 4.7 5.0 5.2 5.4 5.6 5.9 6.1 6.3 6.9 7.5 7.7 7.9 7.9 7.9 7.9 8.2 8.0 8.0 8.2 8.2 8.2 8.2 8.0 7.9 7.8 7.7 7.7 7.8 7.8 7.8 7.6 7.6 7.3 7.2 7.3 7.5 7.6 7.7 7.6 7.5 7.5 7.5 7.5 7.5 7.6 7.6 7.5 7.6 7.5 7.5 7.5
5.5 5.3 5.2 4.7 4.8 5.0 5.2 5.3 5.7 6.0 6.1 6.1 6.5 7.1 7.7 8.0 8.0 7.9 8.0 7.8 7.9 8.0 8.1 8.1 8.2 8.1 7.9 7.7 7.8 7.8 7.8 7.7 7.7 7.7 7.6 7.5 7.5 7.3 7.4 7.5 7.6 7.5 7.5 7.4 7.4 7.4 7.4 7.4 7.4 7.4 7.4 7.4 7.4 7.4
5.4 5.7 5.7 5.5 5.2 5.1 5.2 5.4 5.5 5.6 5.8 6.1 6.3 6.4 6.6 6.7 7.4 7.9 8.1 7.9 7.9 8.0 7.9 7.9 8.0 8.0 8.0 7.9 7.9 7.9 7.9 7.8 7.6 7.7 7.7 7.6 7.6 7.7 7.8 7.8 7.7 7.6 7.6 7.5 7.5 7.5 7.5 7.6 7.6 7.6 7.6 7.6 7.7 7.8
5.4 5.6 5.5 5.6 5.4 5.1 5.0 5.1 4.9 5.1 5.5 5.9 6.1 6.3 6.4 6.6 6.7 7.1 7.2 7.7 7.9 7.8 7.8 7.8 7.8 7.8 7.8 7.9 7.9 7.9 7.8 7.8 7.8 7.8 7.9 7.8 7.8 7.9 7.9 7.9 8.0 8.0 7.8 7.7 7.6 7.6 7.6 7.6 7.6 7.6 7.6 7.7 7.8 7.9
5.6 5.8 5.6 5.5 5.4 5.3 5.1 5.1 5.3 5.0 5.3 5.4 5.7 5.8 6.0 6.2 6.4 6.4 6.4 6.6 6.9 7.2 7.5 7.8 7.8 7.7 7.8 7.9 7.9 8.0 7.9 7.9 7.9 8.0 8.0 7.9 7.9 7.9 7.9 7.9 7.8 7.9 7.8 7.7 7.6 7.7 7.7 7.8 7.8 7.9 7.8 7.8 7.7 7.7
5.8 5.7 5.6 5.5 5.3 5.2 5.3 5.1 4.9 5.3 5.5 5.6 5.7 5.9 6.0 6.0 5.9 6.0 6.1 6.3 6.4 6.4 6.6 7.0 7.4 7.6 7.6 7.6 7.7 7.8 7.8 7.8 7.8 7.8 7.8 7.9 8.0 7.9 7.8 7.7 7.7 7.7 7.6 7.7 7.7 7.7 7.8 7.8 7.8 7.7 7.7 7.7 7.6 7.6
5.3 5.4 5.5 5.7 5.6 5.2 5.2 5.4 5.3 5.3 5.4 5.5 5.6 5.9 6.2 6.1 6.3 6.2 6.2 6.2 6.2 6.0 5.9 6.1 6.5 6.9 7.5 7.6 7.7 7.7 7.8 7.9 7.9 7.9 7.9 7.8 7.8 7.9 7.8 7.8 7.8 7.7 7.6 7.6 7.6 7.7 7.7 7.7 7.7 7.7 7.7 7.8 7.7 7.8
5.4 5.7 5.7 5.8 5.6 5.4 5.6 5.5 5.5 5.5 5.6 5.8 5.7 5.8 6.0 6.0 6.2 6.4 6.2 6.0 5.8 5.7 5.6 5.6 5.8 6.4 6.7 7.5 7.9 7.9 7.8 7.7 7.8 7.8 7.9 7.9 7.9 7.9 7.9 7.9 7.8 7.7 7.7 7.6 7.6 7.5 7.6 7.7 7.7 7.8 7.9 7.9 8.0 8.1
5.9 5.8 6.0 5.8 5.4 5.5 5.8 5.6 5.7 6.0 6.2 6.0 6.0 6.0 5.8 5.5 5.6 5.7 5.7 5.7 5.7 5.6 5.4 5.3 5.3 5.4 5.7 6.7 7.3 7.9 7.9 7.9 7.9 7.7 7.6 7.8 7.9 7.8 7.7 7.7 7.8 7.8 7.7 7.7 7.7 7.7 7.6 7.7 7.7 7.9 7.9 8.1 8.2 8.2
Wind_Speed
17 20 21 23 24 25 24 25 27 7 13 24 22 22 26 25 24 15 9 7 4 3 2 4 4 6 2 5 5 3 3 5 8 11 13 6 5 6 5 11 12 10 8 7 5 5 11 7 10 14 4 6 5 4
16 18 19 21 23 25 24 24 26 28 14 15 17 18 19 21 22 19 6 7 5 2 1 2 4 5 6 4 4 5 1 4 4 3 2 4 3 6 11 5 13 8 10 8 11 8 4 1 7 6 6 3 4 3
16 17 19 20 21 23 24 21 23 25 3 13 13 16 18 20 24 19 4 6 4 2 2 4 3 4 7 8 7 4 4 5 3 2 2 1 4 4 8 8 13 11 13 2 6 13 11 15 4 7 8 6 8 7
15 16 18 19 21 22 22 22 20 28 6 17 13 19 18 18 21 21 5 6 6 2 3 3 3 5 9 11 13 15 5 8 9 1 3 1 3 3 5 4 4 4 11 8 3 3 13 6 6 8 6 8 8 9
15 15 16 19 20 21 21 21 20 23 30 10 15 14 19 18 21 7 3 2 2 4 1 2 3 4 14 14 12 12 12 12 5 3 2 1 1 4 3 5 2 6 6 7 6 9 5 7 8 9 8 9 8 8
16 15 16 17 20 21 22 20 16 17 22 25 24 8 16 16 18 5 1 2 1 2 3 2 2 4 7 11 13 14 8 6 3 3 3 2 4 3 4 3 4 11 12 11 3 2 10 7 13 12 11 9 8 8
16 16 16 17 19 20 20 21 15 9 12 15 15 13 14 13 6 2 1 5 7 1 2 2 4 1 4 4 3 4 8 4 3 2 2 4 4 4 3 4 8 8 8 7 7 10 9 10 11 9 9 10 8 8
18 15 16 16 17 19 21 20 17 8 7 12 16 19 19 16 6 3 3 3 2 3 0 2 2 1 3 3 3 3 2 1 3 3 3 6 6 3 3 5 12 12 12 12 10 10 11 10 12 11 9 8 11 8
15 15 15 16 18 19 20 22 19 9 5 12 15 15 4 3 3 1 5 3 3 1 2 2 3 3 1 1 2 1 2 4 1 1 1 2 2 3 5 13 15 14 10 13 11 9 9 10 9 11 9 7 7 5
13 14 15 17 18 20 21 23 26 20 5 14 8 3 3 4 12 10 3 2 3 1 1 3 3 2 1 1 2 3 2 3 2 2 4 2 3 5 9 13 14 14 12 12 9 8 10 10 8 8 9 7 7 6
20 18 18 19 19 19 22 22 26 26 3 3 1 1 3 17 6 4 1 2 4 2 2 2 3 5 5 4 3 2 3 1 2 3 4 5 6 7 13 13 11 9 8 7 6 6 3 5 5 6 5 4 5 5
18 18 18 19 21 20 20 21 20 9 4 4 3 3 2 2 2 2 2 1 2 3 2 3 3 3 2 3 3 2 2 1 2 7 4 5 6 15 13 13 11 9 8 8 7 7 5 4 3 1 4 5 3 8
15 16 18 17 23 23 21 20 20 16 10 4 2 3 3 3 2 2 1 1 3 2 3 6 5 3 2 1 2 1 2 3 6 2 3 3 11 12 12 11 10 8 8 8 7 6 5 4 2 4 1 5 6 9
17 14 16 16 23 22 21 20 20 11 4 3 2 3 4 2 5 3 4 4 3 1 6 5 3 2 2 3 0 3 3 2 3 4 4 7 12 11 11 10 10 10 8 7 6 5 5 5 3 3 3 3 2 5
18 16 15 15 23 23 21 20 20 5 4 3 4 4 3 2 1 2 3 2 1 5 4 3 2 2 3 2 1 3 2 3 4 3 3 9 13 12 10 8 7 8 6 6 6 5 4 4 4 3 2 3 4 5
23 19 8 20 24 25 22 15 3 2 2 3 4 1 2 1 2 2 1 2 3 2 1 1 2 2 2 3 4 4 4 4 2 3 6 11 12 11 9 8 7 6 5 4 5 5 4 5 5 4 3 3 4 6
20 4 15 22 25 24 12 4 2 2 2 2 2 2 3 4 3 2 2 1 2 1 1 1 3 4 2 3 4 4 1 4 5 5 6 10 10 10 9 8 8 8 7 7 6 5 4 5 6 5 6 4 5 5
5 11 20 23 19 12 2 4 3 2 3 3 2 1 1 2 0 1 2 4 3 2 3 2 3 3 2 2 2 3 3 3 4 6 6 9 10 9 8 9 8 8 7 6 7 6 6 6 6 4 7 6 6 6
12 12 16 20 12 4 4 3 3 1 2 2 3 2 2 1 2 1 2 3 3 1 3 3 3 3 3 1 4 4 5 4 6 5 6 9 11 11 9 9 7 7 7 6 7 6 6 7 5 6 5 6 5 4
17 6 17 16 9 3 2 1 2 2 1 1 2 3 2 1 2 2 2 3 2 3 3 3 3 2 2 2 3 5 5 6 6 7 6 5 6 8 8 8 6 7 6 7 4 5 4 3 3 3 3 5 5 4
7 7 11 5 2 2 3 1 2 2 2 2 1 2 2 3 3 3 3 4 2 2 3 4 3 1 1 1 3 5 7 7 7 6 7 7 7 6 7 6 6 5 5 5 5 5 5 6 5 4 4 4 4 3
3 10 3 3 2 2 3 2 1 1 3 1 2 4 4 4 5 5 4 5 3 6 5 4 3 2 3 5 5 7 6 8 6 5 6 8 7 6 6 5 5 5 4 5 5 5 4 3 5 5 5 4 5 3
5 2 2 1 2 3 4 0 3 4 3 2 2 3 4 3 2 3 3 4 5 4 3 4 5 3 4 6 7 7 8 8 5 7 8 7 7 6 7 7 6 6 5 4 3 4 4 6 5 6 5 5 2 4
5 2 2 2 3 2 1 2 3 2 4 4 3 4 5 2 2 2 5 6 4 2 3 3 2 3 4 7 6 6 4 5 5 6 6 7 6 6 6 6 5 5 5 5 4 4 5 4 7 6 5 5 5 5
3 4 3 4 2 3 4 3 2 2 3 5 5 4 2 3 3 3 4 2 4 2 2 2 3 4 4 5 5 5 7 5 5 6 6 7 6 5 5 5 5 4 5 5 5 6 5 3 3 5 5 4 5 6
5 5 4 2 2 3 2 2 4 4 4 2 3 2 1 2 3 4 0 6 5 4 4 4 5 5 4 3 3 4 5 4 5 5 5 6 7 7 7 7 6 4 4 5 7 7 7 5 5 6 5 7 7 5
5 6 4 1 2 1 2 3 4 3 3 3 3 3 2 3 5 3 3 5 3 4 4 4 5 5 5 5 5 4 3 1 3 5 4 4 4 7 7 7 7 6 6 7 7 8 8 8 7 7 6 5 6 6
5 3 6 5 2 2 2 2 2 3 4 1 1 3 3 2 3 2 3 3 4 4 3 3 3 3 4 4 4 3 3 3 6 7 6 7 5 4 3 3 3 8 7 7 6 6 6 7 6 6 5 4 4 5
4 4 4 3 1 3 3 4 3 1 2 2 2 3 3 3 2 1 1 0 1 4 4 3 2 3 3 2 3 2 2 3 6 9 11 7 4 2 2 4 4 5 6 6 7 7 7 6 6 4 4 3 2 2
4 5 3 4 4 5 3 2 3 3 3 4 4 7 9 7 5 4 4 5 5 6 4 4 5 5 5 4 5 3 2 3 3 3 6 7 7 7 6 5 5 5 6 6 7 6 6 4 4 3 4 4 4 4
4 3 3 4 3 2 1 4 5 6 7 7 7 8 10 8 7 6 7 6 5 4 6 6 6 6 6 6 6 5 5 4 4 2 3 1 6 8 9 8 5 5 5 6 6 5 6 6 5 5 5 5 6 5
3 3 3 2 1 2 4 3 4 5 6 7 7 6 7 7 9 8 1 0 4 5 6 6 6 6 4 6 5 5 4 2 5 5 5 4 6 7 8 7 6 6 7 7 6 6 7 7 6 6 5 6 4 2
3 2 2 1 1 1 2 3 3 3 3 4 4 3 4 4 4 2 2 2 3 4 5 5 5 4 5 6 7 6 2 5 7 6 1 7 9 9 7 6 7 7 8 7 8 7 10 9 6 6 6 5 4 4
Wind_Direction
360 360 355 360 4 5 3 7 6 5 171 182 180 191 189 183 183 188 198 176 118 219 247 274 209 224 328 263 189 190 141 183 192 194 195 173 167 181 171 186 175 166 162 187 173 171 255 186 183 198 158 89 92 77
2 0 0 360 6 7 7 11 11 8 189 171 181 188 184 186 183 182 203 202 196 183 32 319 239 190 190 179 313 180 168 155 171 152 221 116 185 157 167 194 187 189 198 158 191 206 270 304 190 150 107 113 125 113
7 0 2 2 6 9 10 13 16 6 346 160 176 179 184 193 191 182 184 171 109 100 244 249 238 199 292 239 186 269 169 150 160 297 51 131 138 186 180 200 174 203 203 193 143 214 213 228 202 111 137 156 141 125
8 5 360 2 4 7 10 11 11 7 33 177 187 177 187 179 182 179 192 168 182 154 224 167 282 258 288 278 275 252 201 147 127 85 82 149 124 2 179 161 141 142 159 181 187 266 172 176 136 132 143 118 122 119
7 5 5 359 1 0 6 9 12 27 29 159 169 168 179 176 174 134 87 56 212 204 237 144 168 351 324 347 264 234 149 134 136 100 66 87 304 61 13 1 126 159 168 178 209 209 160 160 139 134 138 147 142 134
9 6 2 2 357 360 1 7 14 41 50 40 53 133 158 165 135 92 61 284 230 284 143 159 320 338 336 319 43 50 32 52 83 109 116 122 167 169 141 182 254 172 169 188 161 331 141 141 138 146 166 166 149 164
2 5 5 2 0 358 3 1 14 43 64 78 52 43 63 87 135 141 219 137 173 195 132 166 169 10 318 324 3 42 25 54 68 94 120 139 155 177 173 169 171 170 144 133 140 135 125 151 149 157 173 158 146 162
2 2 5 4 3 360 358 1 4 39 86 115 109 94 100 82 67 50 18 82 353 91 179 171 109 197 329 0 44 41 111 155 32 119 188 139 133 152 190 207 137 133 142 131 131 134 136 144 149 169 182 163 165 181
1 356 6 7 2 360 358 355 359 1 142 130 143 141 156 48 45 88 232 254 260 263 151 213 145 117 228 108 128 119 89 55 46 79 89 106 135 201 205 173 148 146 146 145 147 144 144 151 180 171 180 184 187 197
4 7 18 7 1 356 357 355 348 344 173 168 177 201 138 158 120 143 191 215 169 213 21 34 162 108 135 203 114 120 85 109 103 57 125 139 172 179 180 135 144 152 170 163 154 166 164 179 189 194 193 200 200 203
22 19 10 5 360 356 354 355 348 334 181 218 154 19 103 147 180 211 191 208 142 115 96 39 75 110 352 90 96 60 111 210 115 151 153 173 159 171 140 131 113 113 123 152 156 135 117 150 176 185 197 219 186 196
3 7 7 2 356 353 350 349 351 358 14 334 304 268 255 278 341 63 13 290 34 95 118 124 99 66 52 29 70 28 89 217 130 161 173 178 157 163 140 131 133 138 149 144 136 131 114 109 110 205 266 199 142 98
340 341 348 358 355 349 343 342 338 329 285 211 244 22 9 337 6 299 161 85 48 65 130 141 128 136 155 115 54 62 117 73 148 174 208 174 148 141 144 145 145 150 150 139 129 120 116 124 96 6 102 51 67 88
342 329 325 344 348 342 338 332 329 335 297 360 33 35 1 39 44 2 356 15 24 125 132 129 103 84 92 62 241 94 68 167 205 195 199 131 133 139 145 148 155 161 145 142 140 126 106 107 89 37 53 72 103 106
332 328 320 340 341 336 330 320 310 306 358 12 20 16 67 112 73 303 281 216 4 125 131 139 95 91 92 84 96 105 170 209 231 199 114 138 138 141 133 154 115 101 87 101 108 117 127 135 142 129 144 167 166 140
332 318 7 346 338 329 319 309 287 39 1 46 33 126 109 145 120 143 277 124 110 105 119 234 123 128 192 148 175 201 195 208 173 72 106 119 125 127 126 115 113 122 130 143 125 133 139 147 144 131 114 98 116 128
321 14 2 349 337 317 299 303 345 36 41 42 52 23 320 55 42 37 305 44 128 192 206 277 160 190 190 213 202 200 229 77 102 100 106 126 131 121 123 130 138 147 157 166 154 145 131 129 134 135 131 127 113 110
332 332 353 339 337 310 34 0 334 358 81 67 134 137 88 94 263 316 349 7 339 350 332 351 312 226 204 218 237 96 105 78 96 127 129 118 116 123 138 152 161 161 155 164 157 151 154 167 174 140 135 136 128 137
319 313 325 324 331 292 345 358 333 36 74 127 154 163 99 222 243 294 337 311 303 327 313 295 264 249 258 22 103 110 129 146 135 118 111 125 139 150 159 158 160 156 160 162 162 175 177 185 161 160 151 167 154 157
308 283 344 315 310 282 323 338 288 287 200 97 195 217 163 180 332 5 287 267 301 287 234 228 266 32 6 38 133 155 152 133 132 126 125 129 131 145 148 156 161 155 162 174 177 136 147 138 138 137 160 150 136 147
318 354 321 326 295 297 291 276 231 3 358 279 58 250 216 163 229 220 236 227 200 238 246 262 322 89 88 135 127 123 136 152 163 159 156 155 161 163 158 157 157 161 162 165 170 164 175 175 175 143 135 103 104 135
334 325 303 315 270 222 269 233 351 78 260 316 255 235 236 210 219 225 208 205 240 237 249 279 286 209 180 172 162 138 163 165 143 130 133 141 160 162 167 167 165 168 164 172 173 164 182 160 139 145 126 140 171 138
292 228 261 281 270 243 266 283 239 182 226 244 213 236 228 223 218 179 227 214 228 235 241 239 235 225 204 169 144 139 166 164 150 157 153 158 164 170 167 168 175 170 172 182 166 160 178 148 135 141 144 151 159 153
148 254 254 244 217 266 277 247 227 236 203 212 243 240 252 203 121 251 255 245 228 187 188 220 249 231 181 178 161 158 162 180 167 159 174 162 169 169 165 166 168 174 164 163 166 169 123 135 143 150 153 155 172 178
242 194 233 215 208 212 211 240 263 265 224 223 259 272 218 148 206 226 249 247 144 87 79 334 282 263 209 209 199 162 156 185 184 171 174 165 166 160 162 154 151 149 127 119 130 130 131 129 136 141 150 165 186 185
236 173 213 214 201 214 236 213 203 232 260 261 259 284 318 239 234 235 98 36 71 50 38 19 359 337 309 292 194 162 168 197 199 185 179 175 173 163 155 154 157 155 168 147 158 166 162 161 172 182 194 186 184 185
228 190 191 182 287 229 264 263 276 268 265 248 242 251 227 230 232 84 92 29 50 25 16 12 351 339 342 348 359 18 8 243 215 190 135 117 137 157 161 169 185 194 151 149 158 172 182 181 173 188 205 207 200 187
230 188 173 178 192 218 222 272 259 250 244 4 249 221 242 319 53 56 56 42 25 4 348 340 316 303 312 320 332 333 16 22 77 88 88 73 53 46 104 136 152 150 137 131 161 169 168 166 165 169 172 196 213 173
187 162 122 126 176 203 220 208 238 288 48 328 282 287 350 50 81 36 334 201 322 322 320 328 359 1 309 273 275 267 194 191 174 177 172 171 161 191 96 120 130 127 127 140 157 165 162 154 163 172 167 187 172 191
138 158 147 140 176 205 219 250 326 23 326 321 319 298 291 286 296 320 307 289 282 282 296 304 300 288 285 296 304 245 222 223 233 237 210 199 186 155 157 169 166 146 143 162 163 154 138 143 135 156 196 218 219 215
122 171 148 165 194 214 270 358 330 302 278 269 266 266 275 289 291 280 269 265 252 254 275 275 269 263 267 260 252 272 270 202 200 209 291 165 149 161 157 153 150 144 156 177 179 175 170 179 193 197 196 214 220 207
161 163 134 138 216 65 348 292 289 269 272 272 271 270 269 268 277 286 5 195 209 241 266 278 282 277 297 346 306 248 255 243 191 183 203 167 156 152 147 143 148 163 180 177 181 186 203 195 186 198 193 181 163 189
101 120 83 81 216 251 93 332 281 287 299 295 282 281 290 290 278 41 60 18 327 332 335 342 347 339 330 326 317 320 91 90 90 72 38 185 161 154 154 159 165 173 183 187 176 185 190 191 209 185 174 159 176 208